EW7396 Weather Reports


time (UTC)temp
C
wind
direction
speed
KPH
gust
KPH
rain 1hr
cm
rain 24hr
cm
rain mn
cm
humidity
%
barometer
mb
20260506124603 11 0.0 0.0 0.05 0.86 0.86 88 1008.1
20260506123056 11 0.0 0.0 0.05 0.86 0.86 88 1008.1
20260506121552 11 0.0 0.0 0.08 0.86 0.86 88 1008.0
20260506120047 11 0.0 0.0 0.05 0.81 0.81 88 1007.9
20260506114543 11 0.0 0.0 0.05 0.81 0.81 88 1007.8
20260506113046 11 0.0 0.0 0.03 0.79 0.79 88 1007.8
20260506111534 10 0.0 0.0 0.03 0.79 0.79 88 1007.8
20260506110033 10 0.0 0.0 0.03 0.79 0.79 88 1007.7
20260506104528 10 0.0 0.0 0.05 0.79 0.79 88 1007.7
20260506103022 10 0.0 0.0 0.08 0.79 0.79 88 1007.7
20260506101530 10 0.0 0.0 0.08 0.76 0.76 88 1007.5
20260506100012 10 0.0 0.0 0.15 0.76 0.76 88 1007.5
20260506094519 9 0.0 0.0 0.18 0.71 0.71 89 1007.3
20260506093004 9 0.0 0.0 0.18 0.71 0.71 89 1007.3
20260506091600 9 0.0 0.0 0.20 0.69 0.69 89 1007.3
20260506090055 9 0.0 0.0 0.18 0.61 0.61 89 1007.2
20260506084617 9 0.0 0.0 0.15 0.56 0.56 89 1007.2
20260506083046 9 0.0 0.0 0.15 0.51 0.51 89 1007.1
20260506081549 9 0.0 0.0 0.15 0.48 0.48 89 1007.1
20260506073040 9 0.0 0.0 0.13 0.36 0.36 89 1006.9
20260506071524 9 0.0 0.0 0.10 0.33 0.33 89 1006.8
20260506061507 8 0.0 0.0 0.08 0.23 0.23 89 1006.7
20260506044636 9 0.0 0.0 0.08 0.23 0.10 87 1006.7
20260506043037 9 0.0 0.0 0.05 0.23 0.08 86 1006.8
20260506041531 9 0.0 0.0 0.05 0.20 0.05 85 1006.8
20260506040029 10 0.0 0.0 0.05 0.18 0.05 84 1006.8
20260506034544 10 0.0 0.0 0.03 0.18 0.03 83 1006.9
20260506033019 10 0.0 0.0 0.03 0.18 0.03 82 1006.9
20260506031516 10 0.0 0.0 0.00 0.15 0.00 82 1007.1
20260506030011 10 0.0 0.0 0.00 0.15 0.00 82 1007.2
20260506024506 10 0.0 0.0 0.00 0.18 0.00 82 1007.4
20260506023002 10 0.0 0.0 0.00 0.18 0.00 81 1007.5
20260506021557 10 0.0 0.0 0.00 0.18 0.00 81 1007.6
20260506020053 10 0.0 0.0 0.00 0.18 0.00 81 1007.7
20260506014549 10 0.0 0.0 0.00 0.23 0.00 81 1007.8
20260506013045 10 0.0 0.0 0.00 0.23 0.00 81 1007.8
20260506011540 10 0.0 0.0 0.00 0.23 0.00 82 1007.9
20260506010042 10 0.0 0.0 0.00 0.23 0.00 83 1008.1
20260506004551 10 0.0 0.0 0.00 0.23 0.00 83 1008.2
20260506003038 10 0.0 0.0 0.00 0.23 0.00 84 1008.3
20260506001522 10 0.0 0.0 0.00 0.23 0.00 85 1008.3
20260506000022 10 0.0 0.0 0.00 0.23 0.00 85 1008.5
20260505234524 10 0.0 0.0 0.00 0.23 0.00 86 1008.4
20260505233011 10 0.0 0.0 0.00 0.23 0.00 87 1008.6
20260505231510 11 0.0 0.0 0.00 0.23 0.00 87 1008.8
20260505230105 11 0.0 0.0 0.00 0.23 0.00 88 1008.8
20260505224556 11 0.0 0.0 0.00 0.23 0.00 88 1008.7
20260505223051 11 0.0 0.0 0.00 0.23 0.00 88 1008.8
20260505221547 11 0.0 0.0 0.00 0.23 0.00 89 1008.9
20260505220056 11 0.0 0.0 0.00 0.23 0.00 89 1009.0
20260505214540 11 0.0 0.0 0.00 0.23 0.23 89 1009.1
20260505213035 11 0.0 0.0 0.00 0.23 0.23 89 1009.1
20260505211533 11 0.0 0.0 0.00 0.23 0.23 89 1009.3
20260505210026 11 0.0 0.0 0.00 0.23 0.23 89 1009.3
20260505204522 11 0.0 0.0 0.00 0.23 0.23 89 1009.3
20260505203018 11 0.0 0.0 0.00 0.23 0.23 89 1009.3
20260505201515 11 0.0 0.0 0.00 0.23 0.23 89 1009.4
20260505200009 11 0.0 0.0 0.00 0.23 0.23 89 1009.5
20260505194511 11 0.0 0.0 0.00 0.23 0.23 89 1009.6
20260505193101 11 0.0 0.0 0.00 0.23 0.23 89 1009.5
20260505191600 11 0.0 0.0 0.00 0.23 0.23 89 1009.3
20260505190051 12 0.0 0.0 0.00 0.23 0.23 89 1009.2
20260505184547 12 0.0 0.0 0.00 0.23 0.23 89 1009.3
20260505183044 12 0.0 0.0 0.00 0.23 0.23 88 1009.3
20260505181538 12 0.0 0.0 0.00 0.23 0.23 88 1009.3
20260505180046 12 0.0 0.0 0.00 0.23 0.23 88 1009.3
20260505174538 12 0.0 0.0 0.00 0.23 0.23 88 1009.3
20260505173026 12 0.0 0.0 0.00 0.23 0.23 88 1009.3
20260505171524 12 0.0 0.0 0.00 0.23 0.23 88 1009.3
20260505170024 12 0.0 0.0 0.00 0.23 0.23 88 1009.4
20260505164517 12 0.0 0.0 0.00 0.23 0.23 88 1009.4
20260505163009 12 0.0 0.0 0.00 0.23 0.23 88 1009.5
20260505161503 12 0.0 0.0 0.00 0.23 0.23 88 1009.6
20260505153057 12 0.0 0.0 0.00 0.23 0.23 88 1009.8
20260505151550 12 0.0 0.0 0.00 0.23 0.23 88 1009.8